Regional Weather Roundup
Issued by NWS

Home | Current Version | Previous Version | Text Only | Print | Product List | Glossary Off
Versions: 1 2 3 4 5 6 7 8 9 10 11 12 13 14 15 16 17 18 19 20 21 22 23 24 25 26 27 28 29 30 31 32 33 34 35 36 37 38 39 40 41 42 43 44 45 46 47 48 49 50

000
ASUS43 KFSD 291902
RWRSD

WEATHER ROUNDUP FOR SOUTH DAKOTA
NATIONAL WEATHER SERVICE SIOUX FALLS SD
200 PM CDT WED OCT 29 2014

NOTE: "FAIR" INDICATES FEW OR NO CLOUDS BELOW 12,000 FEET WITH NO
SIGNIFICANT WEATHER AND/OR OBSTRUCTIONS TO VISIBILITY.


SDZ001>005-009-010-012>017-292000-
NORTHWEST AND NORTH CENTRAL SOUTH DAKOTA

CITY           SKY/WX    TMP DP  RH WIND       PRES   REMARKS
BUFFALO          N/A     52  32  46 W10       29.90F
FAITH            N/A     50  29  44 S13       29.96F
MOBRIDGE       SUNNY     54  31  41 S18       29.96F
$$

SDZ012>016-024>037-041>051-057-063-072>074-292000-
SOUTHWEST AND SOUTH CENTRAL SOUTH DAKOTA

CITY           SKY/WX    TMP DP  RH WIND       PRES   REMARKS
RAPID CTY ARPT PTSUNNY   63  25  23 SE3       29.96F
PIERRE         SUNNY     57  27  31 S16       29.98F
CUSTER         MOSUNNY   56  19  23 SW9       30.01F
ELLSWORTH AFB  PTSUNNY   65  27  23 VRB5      29.96F
PHILIP         SUNNY     58  27  30 S3        29.97F
PINE RIDGE     SUNNY     62  22  21 W9        29.99F
SPEARFISH      FAIR      55  32  41 N18       30.02R
WINNER         FAIR      60  25  26 S20       30.01F
$$

SDZ004>011-016>023-039-040-292000-
NORTHEAST SOUTH DAKOTA

CITY           SKY/WX    TMP DP  RH WIND       PRES   REMARKS
ABERDEEN       SUNNY     47  29  49 S10       30.06F
WATERTOWN      SUNNY     42  31  64 SW3       30.09F
SISSETON         N/A     44  30  57 W8        30.09F
$$

SDZ017-020-022-023-036>040-048>070-292000-
SOUTHEAST SOUTH DAKOTA

CITY           SKY/WX    TMP DP  RH WIND       PRES   REMARKS
SIOUX FALLS    MOSUNNY   48  32  53 VRB3      30.12F
HURON          SUNNY     49  29  46 S10       30.08F
CHAMBERLAIN    SUNNY     54  30  40 SE13G18   30.04F
MITCHELL       SUNNY     50  32  50 S9        30.10F
$$

ABBREVIATIONS USED IN REMARKS
   TC - TEMPERATURE IN CELSIUS
  WCI - WIND CHILL INDEX
   HX - HEAT INDEX
  VSB - VISIBILITY




USA.gov is the U.S. government's official web portal to all federal, state and local government web resources and services.